PHASE 3B (AO-10)

Last updated on Fri Sep 04 2026 00:03:13 GMT+0000 (Coordinated Universal Time)

1 14129U 83058B 26246.05220749 -.00000009 00000+0 00000+0 0 9998 2 14129 25.9715 206.8146 5985571 137.0259 289.6643 2.05870144297098
UTC large
Height (km)
Speed (km/s)
/
Latitude / Longitude
Inclination (degrees)
Orbital Period (minutes)
Azimuth
Elevation
Range (km)
Doppler Factor

Next 0 passes for location: London (51.5072 / 0.1276)

No passes found over London.
PHASE 3B (AO-10)